Skip Page Navigation
NASA JPL Caltech
NASA Logo - Jet Propulsion Laboratory + View the NASA Portal
+ Near-Earth Object (NEO) Program
Search JPL
JPL Home Earth Solar System Stars & Galaxies Technology
JPL Solar System Dynamics
BODIES ORBITS EPHEMERIDES TOOLS PHYSICAL DATA DISCOVERY FAQ SITE MAP
JPL Small-Body Database Browser
Search: [ help ]  
2988 Korhonen (1943 EM)
Classification: Main-belt Asteroid          SPK-ID: 2002988
Ephemeris | Orbit Diagram | Orbital Elements | Physical Parameters | Discovery Circumstances ]

[ show orbit diagram ]
Orbital Elements at Epoch 2456800.5 (2014-May-23.0) TDB
Reference: JPL 9 (heliocentric ecliptic J2000)
 Element Value Uncertainty (1-sigma)   Units 
e .1236501522275854 6.1628e-08  
a 2.609888094179652 1.9204e-08 AU
q 2.287175034037375 1.5904e-07 AU
i 14.73481723897079 6.845e-06 deg
node 100.9273117651089 2.3775e-05 deg
peri 133.246746029126 3.3259e-05 deg
M 261.5692404936044 2.3046e-05 deg
tp 2457221.575130221278
(2015-Jul-18.07513022)
9.9053e-05 JED
period 1540.037358645095
4.22
1.6998e-05
4.654e-08
d
yr
n .2337605630013568 2.5801e-09 deg/d
Q 2.932601154321929 2.1579e-08 AU
  Orbit Determination Parameters
   # obs. used (total)      910  
   data-arc span      30235 days (82.78 yr)  
   first obs. used      1931-05-19  
   last obs. used      2014-02-27  
   planetary ephem.      DE431  
   SB-pert. ephem.      SB431-BIG16  
   condition code      0  
   fit RMS      .5165  
   data source      ORB  
   producer      Otto Matic  
   solution date      2014-Jun-16 13:24:00  

Additional Information
 Earth MOID = 1.29799 AU 
 T_jup = 3.353 
[ show covariance matrix ]

Ephemeris | Orbit Diagram | Orbital Elements | Physical Parameters | Discovery Circumstances ]

Physical Parameter Table
Parameter Symbol Value Units Sigma Reference Notes
absolute magnitude H 11.7 mag n/a PDS3 (MPC 17267)  
rotation period rot_per 29.494 h n/a Asteroid Lightcurve DataBase (Rev. 2013-Sep-12) Published Reference List:
[Gross, J. (2003) Minor Planet Bul. 30, 44-46.]
SMASSII spectral type spec_B S   n/a EAR-A-5-DDR-TAXONOMY-V4.0 based on a high-resolution spectrum by Xu et al. (1995) or Bus and Binzel (2002)

2988 Korhonen (1943 EM)          Discovered 1943-Mar-01 by Oterma, L. at Turku
Reference: DISCOVERY.DBLast Updated: 2003-08-29

Alternate Designations
 1943 EM = 1931 KN = 1951 AS = 1953 TO3 = 1979 WM3 = 1979 YV6 
Ephemeris | Orbit Diagram | Orbital Elements | Physical Parameters | Discovery Circumstances ]
ABOUT SSD CREDITS/AWARDS PRIVACY/COPYRIGHT GLOSSARY LINKS
FirstGov 2014-Jul-31 13:32 UT
(server date/time)  
NASA Home Page
Site Manager:   Donald K. Yeomans
Webmaster  Alan B. Chamberlin